Content
SEND FEEDBACK

Daily
Averages
Monthly
Summary
Mexico

LEONA VICARIO, QUINTANA ROO


Home > North America > Mexico > Quintana Roo
Elevation: 26 feet     Latitude: 20 59N     Longitude: 087 12W

WEATHER
 
SELECT A DAY
Number of Records: 167,980;   Date Range: 1/1/95 - 12/27/14
 
SHARE

PRINT THIS DATA

[ ← Previous Day ]
WEATHER ALMANAC - FEBRUARY 9, 2013
[ Next Day → ]
[ °C ]   °F
Weather ElementAverageHighLow
Temperature75.4 °F82.4 °F (10:46 am)64.4 °F (5:43 am)
Dewpoint68.5 °F71.6 °F (7:43 am)64.4 °F (3:45 am)
Humidity80.7 %100 % (1:44 am)62 % (10:46 am)
Barometer30.05 in30.10 in (9:45 am)30.00 in (2:46 am)
Wind Speed5.5 mph12.7 mph (2:46 pm)
Weather ElementAverage
Visibility7.3 mi
Wind DirectionENE (79.1 °)

Weather ElementTotal
Precipitation---
Cooling Degree Days8.4 (Base 65)
Growing Degree Days23.4 (Base 50)
Averaged from 23 records on February 9, 2013
WEATHER CONDITIONS BREAKOUT
WIND DIRECTION BREAKOUT
WEATHER BY HOUR - FEBRUARY 9, 2013
[ °C ]   °F
Local TimeTemperatureDewpointHumidityBarometerVisibilityWind DirectionWind SpeedGust SpeedPrecipitationEventsConditions
1:44 AM68.0 °F68.0 °F100 %30.02 in8.0 miESE (120°)5.8 mphScattered Clouds
2:46 AM66.2 °F66.2 °F100 %30.00 in8.0 miCalmScattered Clouds
3:45 AM66.2 °F64.4 °F94 %30.03 in8.0 miCalmScattered Clouds
4:44 AM66.2 °F64.4 °F94 %30.04 in8.0 miCalmScattered Clouds
5:43 AM64.4 °F64.4 °F100 %30.02 in8.0 miCalmPartly Cloudy
6:42 AM64.4 °F64.4 °F100 %30.06 in8.0 miCalmPartly Cloudy
7:43 AM73.4 °F71.6 °F94 %30.07 in7.0 miCalmPartly Cloudy
8:44 AM80.6 °F69.8 °F70 %30.09 in7.0 miNE (50°)6.9 mphMostly Cloudy
9:45 AM80.6 °F68.0 °F65 %30.10 in7.0 miNE (50°)5.8 mphScattered Clouds
10:46 AM82.4 °F68.0 °F62 %30.09 in7.0 miEast (80°)8.1 mphPartly Cloudy
11:44 AM82.4 °F68.0 °F62 %30.07 in7.0 miESE (110°)9.2 mphPartly Cloudy
12:44 PM82.4 °F69.8 °F66 %30.05 in7.0 miEast (80°)10.4 mphScattered Clouds
1:43 PM82.4 °F69.8 °F66 %30.03 in7.0 miESE (120°)8.1 mphMostly Cloudy
2:46 PM80.6 °F69.8 °F70 %30.03 in7.0 miSE (130°)12.7 mphScattered Clouds
3:40 PM80.6 °F69.8 °F70 %30.02 in7.0 miSE (130°)11.5 mphMostly Cloudy
4:43 PM80.6 °F69.8 °F70 %30.03 in7.0 miSE (140°)8.1 mphScattered Clouds
5:41 PM77.0 °F69.8 °F78 %30.03 in7.0 miESE (120°)6.9 mphScattered Clouds
6:44 PM77.0 °F69.8 °F78 %30.04 in7.0 miESE (120°)4.6 mphScattered Clouds
7:47 PM75.2 °F69.8 °F83 %30.06 in7.0 miESE (120°)5.8 mphScattered Clouds
8:44 PM75.2 °F69.8 °F83 %30.06 in7.0 miESE (120°)4.6 mphScattered Clouds
9:46 PM77.0 °F69.8 °F78 %30.06 in7.0 miESE (110°)6.9 mphScattered Clouds
10:46 PM75.2 °F69.8 °F83 %30.06 in7.0 miESE (110°)5.8 mphScattered Clouds
11:46 PM75.2 °F71.6 °F89 %30.05 in7.0 miESE (110°)5.8 mphScattered Clouds
Hourly data recorded from MMUN, located miles away from Leona Vicario, Quintana Roo







STORIES FROM OUR PARTNERS